Regional Weather Roundup
Issued by NWS Boston, MA

Home | Current Version | Previous Version | Text Only | Print | Product List | Glossary On
Versions: 1 2 3 4 5 6 7 8 9 10 11 12 13 14 15 16 17 18 19 20 21 22 23 24 25 26 27
000
ASUS41 KBOX 291310
RWRBOX

REGIONAL WEATHER ROUNDUP
NATIONAL WEATHER SERVICE TAUNTON MA
900 AM EDT WED MAR 29 2017

NOTE:  "FAIR" INDICATES FEW OR NO CLOUDS BELOW 12,000 FEET WITH NO
SIGNIFICANT WEATHER AND/OR OBSTRUCTIONS TO VISIBILITY.

MAZALL-291400-
EASTERN MASSACHUSETTS

CITY           SKY/WX    TMP DP  RH WIND       PRES   REMARKS
BOSTON         CLOUDY    39  37  92 N10       30.01S
BEVERLY        CLOUDY    39  37  92 N8        30.00R
LAWRENCE       CLOUDY    38  38 100 N6        30.02S
BEDFORD        CLOUDY    39  36  89 N8        30.00R
BLUE HILL        N/A     36  36 100 N8G16     29.97R WCI  30
NORWOOD        CLOUDY    40  39  97 N7        30.00R FOG
MARSHFIELD     CLOUDY    39  37  93 N8G16     29.98F
PLYMOUTH       CLOUDY    38  36  92 N13G21    29.97S WCI  30
TAUNTON        CLOUDY    40  36  86 N8G17     29.98S
NEW BEDFORD    CLOUDY    39  36  89 N12       29.97S WCI  32
$$

MAZALL-291400-
CAPE COD AND THE ISLANDS

CITY           SKY/WX    TMP DP  RH WIND       PRES   REMARKS
FALMOUTH       CLOUDY    37  37 100 MISG      29.96S
HYANNIS        CLOUDY    40  38  93 N15G29    29.93R WCI  32
CHATHAM        CLOUDY    40  39  97 N9G17     29.94F FOG
PROVINCETOWN   CLOUDY    39  37  92 N14G22    29.97S WCI  31
NANTUCKET      CLOUDY    41  38  89 N22G29    29.92S WCI  31
MARTHAS VNYRD  CLOUDY    41  38  89 N18G26    29.95R
$$

MAZALL-291400-
CENTRAL AND WESTERN MASSACHUSETTS

CITY           SKY/WX    TMP DP  RH WIND       PRES   REMARKS
WORCESTER      CLOUDY    37  31  78 NE12G22   29.98S WCI  29
FITCHBURG      CLOUDY    41  33  73 N9        30.01S
ORANGE         SUNNY     41  33  73 NW17G23   30.02S
SPRINGFIELD    MOSUNNY   44  33  64 N15G25    30.02R
WESTFIELD      MOSUNNY   42  36  79 N13G20    30.03S
NORTH ADAMS    MOSUNNY   38  33  82 W7        30.07R
PITTSFIELD     MOSUNNY   37  31  78 NW6       30.03R
$$

RIZALL-291400-
RHODE ISLAND

CITY           SKY/WX    TMP DP  RH WIND       PRES   REMARKS
PROVIDENCE     CLOUDY    41  37  86 N14       30.00R
NEWPORT        CLOUDY    40  38  93 N13G20    29.97R
BLOCK ISLAND   CLOUDY    41  38  89 N10       29.98S
SMITHFIELD     CLOUDY    38  37  97 N10       29.99R FOG     WCI  31
WESTERLY       CLOUDY    44  39  82 N13       29.99R
$$

CTZALL-291400-
CONNECTICUT

CITY           SKY/WX    TMP DP  RH WIND       PRES   REMARKS
BRADLEY INTL   PTSUNNY   42  37  82 NW10      30.04R
HARTFORD       CLOUDY    44  37  76 N15       30.04R
BRIDGEPORT     SUNNY     48  35  60 N14G23    30.03R
DANBURY        CLOUDY    41  35  79 N15G23    30.06R
GROTON         CLOUDY    45  37  73 N17G23    29.99R
NEW HAVEN      PTSUNNY   44  35  70 N14G22    30.02R
CHESTER        NOT AVBL
MERIDEN        CLOUDY    44  35  70 N10       30.03R
WILLIMANTIC    CLOUDY    44  35  70 MISG      30.02R
OXFORD         MOSUNNY   43  32  65 N14       30.03R
$$

MEZ002-015-021-024-NHZ003-005-008-011-012-014-VTZ005-008-291400-
NORTHERN NEW ENGLAND

CITY           SKY/WX    TMP DP  RH WIND       PRES   REMARKS
PORTLAND ME    PTSUNNY   38  33  82 N9        30.01S WCI  31
BANGOR ME      CLOUDY    34  32  92 N12       30.01S WCI  25
CONCORD NH     CLOUDY    39  34  82 NW7       30.01S
MANCHESTER NH  CLOUDY    40  33  76 NW8       30.00S
NASHUA NH      CLOUDY    40  35  83 NW8       30.01F
PORTSMOUTH NH  CLOUDY    38  36  93 N8        30.00S WCI  32
JAFFREY NH     MOSUNNY   39  31  72 CALM      30.00S
KEENE NH       CLOUDY    40  32  73 N9        30.04R
BURLINGTON VT  CLOUDY    36  31  82 N5        30.13R
MT. WASHINGTON CLOUDY    18  16  93 NW48        N/A  WCI  -6
$$

NYZ052-076-291400-
EASTERN NEW YORK

CITY           SKY/WX    TMP DP  RH WIND       PRES   REMARKS
ALBANY         LGT RAIN  39  35  86 N6        30.12R
NEW YORK CITY  CLOUDY    47  38  71 N12       30.06R
$$

ANZALL-291400-
MARINE OBSERVATIONS

STATION/POSITION TIME  TEMP    WIND        PRES    VSBY  WAVE
                       AIR SEA DIR/SP/G                  HT/PER
                 (UTC) (F)     (DEG/KT/KT) (MB)    (MI)  (FT/S)
BOSTON BUOY      1250   38 40  360/ 14/ 16 1015.3R         4/ 6
BUZZARDS BAY     1200   39     360/ 18/ 20 1014.8R
NANTUCKET SOUND  1250      39              1013.5S         2/ 4
MASS BAY-STELLWA 1204   38 39  350/ 16/ 17 1014.6R         4/ 4
ISLE OF SHOALS   1200   37      10/ 10/ 11 1015.6R
S OF BLOCK IS    1255      40                N/A           4/ 4
$$

......................KEY.........................
  SKY/WX - SKY CONDITION/PRESENT WEATHER
  TMP    - TEMPERATURE IN FAHRENHEIT
  DWPT   - DEWPOINT IN FAHRENHEIT
  RH     - RELATIVE HUMIDITY IN PERCENT
  WIND   - DIRECTION AND SPEED IN MPH
  PRES   - MEAN SEA LEVEL PRESSURE IN INCHES OF HG
  WCI    - WIND CHILL INDEX
  VSB    - VISIBILITY IN MILES
  HX     - HEAT INDEX
  TC     - TEMPERATURE IN CELSIUS
  VRB    - VARIABLE WIND DIRECTION
  N/A    - NOT AVAILABLE




USA.gov is the U.S. government's official web portal to all federal, state and local government web resources and services.